RH
87 76 78 68 59 52 47 46 47 66 97 98 90 85 77 72 68 64 62 61 60 58 49 42 43 37 34 36 31 30 29 30 30 27 26 25 23 20
93 94 81 87 67 63 55 49 51 54 68 86 95 93 87 78 72 67 58 56 54 49 42 38 35 34 32 32 30 28 26 25 25 24 22 19 16 15
96 91 82 68 70 72 68 61 56 54 58 69 74 83 88 82 73 66 58 54 48 41 39 40 40 37 32 30 30 28 26 24 21 17 14 13 12 13
92 74 74 86 80 78 70 66 65 59 53 53 56 63 65 62 59 57 52 48 45 45 44 43 42 41 38 32 28 24 20 18 19 20 20 16 14 12
83 85 75 69 75 75 69 66 63 60 54 50 53 58 58 54 51 50 49 47 44 41 40 39 32 28 21 21 26 29 25 21 17 15 13 10 8 5
67 82 86 87 81 75 69 64 60 61 63 67 68 67 60 59 56 52 57 55 50 38 28 23 24 30 30 26 20 14 12 10 7 5 5 4 4 4
87 87 95 81 83 79 68 64 75 82 81 72 68 65 57 55 55 49 39 32 28 26 30 29 24 20 13 9 7 6 5 6 6 4 3 3 3 3
100 97 91 90 76 72 77 79 76 76 70 64 57 49 46 30 29 32 33 31 32 25 21 18 9 7 6 5 4 4 3 3 3 3 3 3 3 3
94 89 84 77 74 76 75 79 77 68 51 43 36 30 35 36 33 33 29 25 21 13 7 8 6 5 4 3 2 2 3 4 4 4 3 3 2 3
85 77 77 80 83 82 74 68 61 48 41 42 43 43 37 28 24 23 18 12 8 6 5 6 4 3 3 2 3 3 3 4 5 5 4 3 3 4
88 84 82 78 72 67 68 60 54 53 54 49 39 31 27 22 18 13 8 7 6 4 2 4 4 4 3 2 3 3 4 6 7 8 7 6 5 6
78 75 74 75 74 60 52 53 62 59 50 41 33 26 21 14 8 6 6 4 3 4 3 4 4 3 4 3 4 5 5 6 6 5 5 5 6 7
81 82 75 61 53 57 60 61 55 47 41 33 25 16 10 7 6 4 3 3 4 4 4 5 5 4 4 4 3 3 5 4 3 4 4 5 5 5
93 70 59 64 70 65 56 48 42 35 27 18 12 9 7 5 3 3 4 4 4 4 4 4 4 3 3 4 4 3 4 4 4 4 4 4 5 6
63 65 71 63 54 49 43 35 27 18 12 11 7 5 4 4 4 4 4 4 4 3 4 4 4 4 5 5 4 5 4 5 4 5 5 6 6 7
72 61 52 48 43 36 26 18 12 10 8 6 5 4 5 4 4 4 4 4 4 4 4 4 4 5 5 6 6 6 6 6 6 6 7 7 8 9
55 51 43 34 25 18 12 9 8 6 5 5 6 6 5 5 4 4 4 4 4 3 4 4 4 5 6 5 5 5 6 6 7 7 9 9 8 8
46 35 26 19 13 8 7 6 6 6 6 6 6 6 5 5 4 4 3 3 3 4 4 4 4 4 5 5 6 6 8 8 9 8 9 12 13 13
26 17 11 8 7 6 6 6 7 7 6 8 7 6 5 5 4 4 4 4 4 5 5 5 5 6 7 8 8 9 10 12 15 16 14 12 11 10
12 8 7 6 6 6 7 8 7 9 9 7 7 6 6 6 5 5 5 5 6 6 5 6 7 8 8 10 14 15 13 12 11 10 10 8 8 8
7 6 6 7 8 8 8 8 12 11 8 8 7 8 8 6 6 6 7 7 7 8 8 10 13 15 15 14 12 12 11 10 9 8 7 6 5 5
6 7 8 9 8 8 10 13 11 10 10 9 9 10 8 8 9 11 12 14 16 16 17 16 14 13 12 10 9 9 8 8 7 8 8 7 6 6
8 9 9 9 9 13 14 12 12 12 11 11 12 12 12 14 18 21 22 21 20 16 15 14 12 11 10 11 10 10 10 11 11 10 9 8 7 6
Wind_Speed
70 70 68 68 67 68 69 71 73 75 79 85 87 89 90 90 92 92 93 94 97 98 100 101 102 102 104 105 106 106 106 107 109 111 114 116 117 118
70 71 68 69 70 71 70 71 72 74 76 80 85 89 92 93 93 94 95 96 99 101 103 104 104 105 106 105 105 105 107 109 112 116 119 121 123 124
72 73 71 69 70 72 74 75 76 76 76 79 83 86 88 90 92 94 96 99 102 103 105 106 106 106 105 106 108 110 113 117 120 124 126 126 125 119
72 72 68 72 74 74 75 76 78 80 81 80 81 81 84 88 91 93 96 99 102 104 105 106 108 110 112 113 115 120 123 121 120 120 118 114 112 111
71 72 71 72 75 76 77 78 79 82 82 78 75 77 81 86 88 92 96 99 102 105 108 110 113 116 119 120 117 115 115 115 115 117 117 114 111 108
68 71 74 77 79 79 79 80 81 80 78 76 76 79 84 88 92 94 99 105 110 114 116 116 117 113 113 114 115 115 114 112 110 108 104 98 95 92
72 73 77 80 80 80 80 79 78 78 80 82 84 88 92 96 100 104 106 110 114 114 109 109 112 114 116 115 111 107 101 95 95 96 94 88 82 78
71 76 80 80 81 79 77 78 82 86 89 92 95 97 101 104 107 107 103 102 107 113 112 111 111 113 108 103 98 91 83 80 80 82 83 77 72 70
75 78 79 78 75 77 81 86 91 96 99 100 101 103 103 102 102 104 107 108 111 111 105 102 102 101 97 93 85 76 69 67 71 75 76 71 63 61
76 74 72 76 81 85 89 93 99 103 106 108 105 103 104 105 105 108 109 107 106 103 95 91 92 92 89 85 74 67 61 59 62 67 68 65 57 51
69 73 77 82 87 91 96 101 104 107 106 106 107 108 110 111 110 107 105 99 96 95 88 80 80 78 81 77 67 58 52 53 56 59 61 57 51 46
74 79 83 88 93 97 100 100 101 105 109 113 115 115 115 111 105 98 93 89 84 81 79 74 75 69 70 70 55 47 49 53 55 56 55 51 50 52
81 87 91 95 98 99 99 104 108 112 116 118 118 113 106 101 97 90 83 77 73 71 67 64 70 68 62 64 59 44 51 57 56 53 52 53 54 54
87 92 95 97 97 102 107 111 115 117 116 113 106 101 96 92 86 79 73 69 66 62 63 63 64 60 56 54 51 44 47 50 50 49 49 48 47 48
91 91 93 98 104 109 112 113 113 109 103 99 95 90 85 79 74 69 67 65 67 60 53 58 58 53 48 47 46 43 44 43 43 42 42 39 39 40
89 96 101 106 110 112 110 105 101 95 91 88 82 77 73 70 66 64 64 62 60 57 46 51 47 44 41 39 37 36 37 37 35 34 33 33 34 36
98 104 108 108 104 101 96 91 85 83 77 71 67 65 63 62 64 59 56 52 48 47 42 41 39 36 34 32 30 28 28 29 29 29 27 27 28 27
105 104 98 96 93 87 82 78 72 67 62 61 59 57 58 60 57 50 45 41 39 37 35 32 30 27 25 23 22 21 21 22 22 21 17 18 23 23
95 91 86 82 77 73 68 63 58 56 55 53 53 54 55 51 47 45 41 37 34 31 27 23 19 17 17 16 16 14 14 16 15 16 18 19 21 25
82 79 74 69 64 59 55 53 50 49 48 49 50 49 47 45 41 35 32 29 26 22 19 17 15 14 13 12 12 12 11 12 14 16 17 19 20 22
72 67 62 57 54 51 47 45 43 44 46 47 45 43 41 37 32 30 28 26 23 21 18 15 13 12 12 11 11 12 12 13 14 14 14 15 16 16
61 56 53 51 48 43 40 38 40 41 41 40 38 37 33 30 27 25 23 21 19 17 16 15 14 14 13 12 12 12 11 12 13 13 14 14 14 13
53 50 47 44 40 36 35 37 38 38 37 35 33 29 26 24 21 20 19 19 18 18 17 17 17 17 16 14 13 14 13 12 12 14 16 15 14 13
Wind_Direction
287 288 288 289 290 290 290 288 285 283 283 282 282 282 282 281 281 280 280 280 280 280 279 278 278 279 279 279 279 279 279 279 277 276 275 274 274 274
286 287 287 291 293 293 294 292 288 285 282 279 280 281 283 284 284 284 285 285 283 282 282 282 282 282 282 282 282 281 280 278 277 276 277 276 275 275
284 287 290 290 293 296 294 293 291 289 286 283 281 280 280 281 283 285 285 284 284 284 285 285 285 284 285 284 283 282 281 280 280 279 278 277 277 276
285 287 290 293 296 297 295 291 289 289 287 285 284 284 283 282 281 282 283 285 285 285 285 286 286 285 285 284 284 283 282 280 279 278 277 276 276 276
282 288 291 293 295 295 293 291 290 290 290 288 286 286 285 284 284 285 285 285 287 286 286 286 286 287 287 286 285 282 280 280 280 280 279 278 277 276
286 290 295 296 295 294 293 292 292 291 291 292 291 290 288 288 288 288 289 289 288 288 288 289 288 287 285 283 281 281 282 283 283 281 280 279 277 275
292 295 294 293 293 293 294 293 292 293 293 293 293 291 291 291 289 289 290 289 290 289 290 290 289 287 284 285 286 286 286 285 282 280 279 277 276 273
289 290 292 292 294 294 293 294 295 294 293 293 293 293 294 293 294 293 293 293 293 293 292 292 289 288 288 287 286 286 285 284 281 279 278 277 276 273
288 290 292 293 293 294 295 296 295 296 296 297 297 297 297 297 297 297 296 296 296 293 291 294 291 291 289 287 287 288 286 283 279 277 276 276 274 272
290 292 293 294 295 295 296 298 299 300 301 301 301 301 300 299 299 299 299 299 297 297 295 296 292 291 290 289 291 290 287 280 275 273 274 274 274 270
293 293 293 295 297 298 301 302 302 300 301 302 302 302 302 302 302 301 300 300 299 297 295 295 292 290 290 290 290 290 284 275 269 269 270 272 273 269
293 297 299 299 300 301 302 302 302 303 303 303 303 304 304 304 302 302 301 300 298 297 297 296 293 291 290 290 290 287 279 273 269 268 270 273 271 268
301 301 302 302 303 304 304 303 303 303 303 304 304 305 304 304 303 304 302 301 299 297 296 294 291 291 291 290 290 284 277 273 273 274 272 269 267 265
300 301 302 303 304 304 303 303 304 304 304 305 305 304 304 304 304 304 303 302 300 299 297 295 289 291 291 290 288 283 273 274 275 273 271 270 269 266
302 303 303 303 303 302 303 304 304 305 306 305 305 306 305 304 305 307 307 305 302 302 299 292 292 292 290 285 283 280 278 275 275 274 274 275 271 266
303 303 303 304 304 305 304 304 305 306 306 307 307 306 306 308 309 310 308 306 304 303 301 294 294 291 287 286 285 282 282 279 280 277 276 273 269 266
305 305 305 306 305 304 304 306 306 306 307 307 306 307 309 310 311 312 310 309 307 304 302 299 296 294 293 293 293 290 288 285 281 279 277 274 269 266
307 307 305 304 305 306 307 307 308 308 308 309 309 310 313 315 317 317 317 317 315 312 310 306 303 302 301 299 296 295 290 287 287 285 278 267 265 260
308 307 307 307 308 308 308 309 310 311 312 312 314 317 318 319 322 324 324 323 321 318 315 313 313 312 308 307 307 303 298 295 292 288 283 278 278 279
310 310 309 310 310 310 312 313 314 314 315 318 320 321 323 325 325 328 334 334 332 332 332 331 330 327 325 323 321 320 311 295 288 287 285 283 276 268
314 313 313 313 314 315 317 317 317 319 321 324 325 326 326 326 334 341 342 340 342 345 347 348 351 350 347 342 331 320 311 304 301 297 294 291 289 286
317 317 317 317 317 320 320 320 322 325 325 326 328 330 332 342 348 348 351 353 355 357 357 358 2 1 354 346 339 333 334 335 333 329 320 312 304 291
321 320 320 320 322 323 323 326 328 328 328 329 332 336 346 352 353 357 1 1 4 8 7 6 3 5 7 5 3 4 1 352 341 340 338 332 329 328